Weather in Kirkjubour

Denmark     61°57′15″N   6°47′39″W
temp.,
°C
wind,
m/s
gust,
m/s
humid.,
%
clouds,
%
prec.,
mm/h
press.,
hPa
HPBL,
m
13 may, thu
thu1301:00+5ne9973100 0.0 10211052
04:00+5ne101079100 0.1 1020953
07:00+5ne101175100 0.3 10201058
10:00+5ne101075100 0.1 1020992
13:00+5ne997596 0.3 1020993
16:00+5ne9107763 0.1 1020951
19:00+5ene9108078 0.4 1020874
22:00+5ene998199 0.4 1020857
14 may, fri
fri1401:00+5ne997892 0.8 1020882
04:00+5ne9107786 0.2 1019889
07:00+5ne9107395 0.4 10181174
10:00+5ne9107178 0.2 10181127
13:00+5ne9107588 0.3 1017991
16:00+5ne9107071 0.1 10161293
19:00+5ne10117179 0.3 10151355
22:00+5ne101173100 0.1 10141338
15 may, sat
sat1501:00+5ne111276100 0.3 10121352
04:00+5ne121278100 0.2 10101091
07:00+5ne121386100 0.6 1009957
10:00+5ne121390100 0.3 1007933
13:00+5nne121396100 1.6 1006801
16:00+5nne111295100 1.8 1004805
19:00+6nne91096100 3.6 1002643
22:00+6nne7998100 0.8 1001465
16 may, sun
sun1601:00+7ne7999100 3.3 1001312
04:00+7ne7999100 4.2 1000263
07:00+6ne7998100 7.4 1000332
10:00+6nne6898100 4.3 1000404
13:00+6ne5698100 4.8 1000315
16:00+7ne5597100 0.0 1001212
19:00+7ne5698100 0.1 1001177
22:00+7nne6798100 0.6 1003225
17 may, mon
mon1701:00+6nne7998100 1.9 1003357
04:00+6ne81098100 1.2 1004518
07:00+6ne91297100 1.9 1004591
10:00+6ne101296100 0.4 1005613
13:00+6nne91296100 0.7 1007598
16:00+6nne91296100 0.9 1007612
19:00+6nne101396100 1.6 1008617
22:00+6nne101396100 0.3 1009651